Simultaneous Nadir Overpasses (SNOs) Predictions

Prediction of SNOs between AQUA and METOP-B Satellite Orbit:

Table of predicted SNOs for the next 14.0 days since TLE Epoch: 11/9/2019
Index Date (AQUA) Time (AQUA) Lat,Lon (AQUA) SZA (AQUA ) Date (METOP-B) Time (METOP-B) Lat,Lon (METOP-B) SZA (METOP-B ) Distance(km) Time Diff (sec)
1 11/10/2019 10:15:29 -73.82,-159.66 89.16 11/10/2019 10:14:57 -73.81,-159.57 89.16 2.77 32
2 11/10/2019 11:04:57 73.87, 7.86 90.91 11/10/2019 11:05:36 73.85, 7.86 90.90 2.00 39
3 11/13/2019 05:49:44 -73.80, -93.18 88.40 11/13/2019 05:49:21 -73.81, -93.18 88.39 1.01 23
4 11/13/2019 06:39:12 73.85, 74.33 91.67 11/13/2019 06:40:00 73.85, 74.25 91.66 2.66 48
5 11/16/2019 00:34:22 73.27, 166.73 91.79 11/16/2019 00:33:14 73.21, 164.53 91.75 71.05 68
6 11/16/2019 01:23:58 -73.79, -26.72 87.68 11/16/2019 01:23:44 -73.80, -26.79 87.67 2.49 14
7 11/16/2019 02:13:27 73.89, 140.68 92.44 11/16/2019 02:14:22 73.89, 140.76 92.43 2.49 55
8 11/18/2019 20:08:43 73.58,-127.47 92.79 11/18/2019 20:07:32 73.50,-128.41 92.73 30.79 71
9 11/18/2019 20:58:14 -73.83, 39.61 86.94 11/18/2019 20:58:07 -73.84, 39.71 86.94 3.15 7
10 11/18/2019 21:47:42 73.89,-152.87 93.12 11/18/2019 21:48:46 73.88,-152.86 93.11 1.17 64
11 11/21/2019 15:43:01 73.73, -61.37 93.60 11/21/2019 15:41:51 73.73, -61.45 93.60 2.34 70
12 11/21/2019 16:32:29 -73.83, 106.05 86.30 11/21/2019 16:32:31 -73.82, 106.09 86.31 1.74 2




NCC Satellite Simultaneous Nadir Overpasses (SNOs) Prediction Service
